Weather History for K1M4 - November, 2011

Change the Weather History Date:

Wednesday, November 2, 2011

  Actual Average (KJFX) Record (KJFX)
Temperature  
Mean Temperature 56 °F -  
Max Temperature 66 °F 69 °F 84 °F (1961)
Min Temperature 45 °F 43 °F 24 °F (1993)
Degree Days  
Heating Degree Days 10    
Growing Degree Days 6 (Base 50)    
Moisture  
Dew Point 36 °F    
Average Humidity 48    
Maximum Humidity 66    
Minimum Humidity 31    
Precipitation  
Precipitation 0.00 in - - ()
Sea Level Pressure  
Sea Level Pressure 30.33 in    
Wind  
Wind Speed 7 mph (SSE)    
Max Wind Speed 14 mph    
Max Gust Speed -    
Visibility 10 miles    
Events      
Averages and records for this station are not official NWS values.
T = Trace of Precipitation, MM = Missing Value Source: NWS Daily Summary

Daily Weather History Graph

Daily Weather History Graph

Search for Another Location

Airport or City:

Trip Planner

Search our weather history database for the weather conditions in past years. The results will help you decide how hot, cold, wet, or windy it might be!

Date:

Astronomy

Nov. 02, 2011 Rise Set
Actual Time 7:10 AM CDT 5:56 PM CDT
Civil Twilight 6:45 AM CDT 6:22 PM CDT
Nautical Twilight 6:15 AM CDT 6:52 PM CDT
Astronomical Twilight 5:45 AM CDT 7:21 PM CDT
Moon 1:30 PM CDT (11/2) No Moon Set
Length of Visible Light 11h 37m
Length of Day
10h 45m
Waxing Crescent, 50% of the Moon is Illuminated
Nov 2
Waxing Crescent
Nov 10
Full
Nov 18
Last Quarter
Nov 25
New
Dec 2
First Quarter

Hourly Weather History & Observations

Time (CDT) Temp. Windchill Dew Point Humidity Pressure Visibility Wind Dir Wind Speed Gust Speed Precip Events Conditions
12:56 AM 45.9 °F 44.6 °F 34.9 °F 66% 30.34 in 10.0 mi SE 3.5 mph - N/A   Clear
1:56 AM 48.9 °F - 34.9 °F 58% 30.34 in 10.0 mi SE 5.8 mph - N/A   Clear
2:56 AM 48.9 °F - 34.9 °F 58% 30.34 in 10.0 mi SE 6.9 mph - N/A   Clear
3:56 AM 47.8 °F - 34.9 °F 61% 30.35 in 10.0 mi SE 6.9 mph - N/A   Clear
5:56 AM 46.9 °F - 34.9 °F 63% 30.39 in 10.0 mi SE 6.9 mph - N/A   Clear
7:56 AM 46.9 °F - 36.0 °F 66% 30.42 in 10.0 mi ESE 4.6 mph - N/A   Clear
8:56 AM 52.0 °F - 36.9 °F 56% 30.43 in 10.0 mi SE 6.9 mph - N/A   Clear
9:56 AM 54.9 °F - 37.9 °F 53% 30.43 in 10.0 mi SSE 10.4 mph - N/A   Clear
10:56 AM 59.9 °F - 37.9 °F 44% 30.43 in 10.0 mi Variable 6.9 mph - N/A   Clear
11:56 AM 63.0 °F - 36.9 °F 38% 30.39 in 10.0 mi South 10.4 mph - N/A   Clear
12:56 PM 63.9 °F - 36.0 °F 36% 30.36 in 10.0 mi South 13.8 mph - N/A   Clear
2:56 PM 66.9 °F - 36.9 °F 33% 30.30 in 10.0 mi South 9.2 mph - N/A   Clear
3:56 PM 66.9 °F - 36.0 °F 32% 30.28 in 10.0 mi South 9.2 mph - N/A   Clear
4:56 PM 65.8 °F - 34.0 °F 31% 30.28 in 10.0 mi SSE 10.4 mph - N/A   Clear
5:56 PM 61.0 °F - 36.0 °F 39% 30.28 in 10.0 mi SE 5.8 mph - N/A   Clear
6:56 PM 56.8 °F - 36.9 °F 47% 30.29 in 10.0 mi SE 4.6 mph - N/A   Clear
8:56 PM 55.9 °F - 34.9 °F 45% 30.26 in 10.0 mi SSE 9.2 mph - N/A   Clear
9:56 PM 54.9 °F - 34.9 °F 47% 30.25 in 10.0 mi SSE 9.2 mph - N/A   Clear
10:56 PM 52.9 °F - 34.0 °F 49% 30.24 in 10.0 mi SSE 9.2 mph - N/A   Clear
11:56 PM 52.9 °F - 32.0 °F 45% 30.23 in 10.0 mi SSE 6.9 mph - N/A   Clear